CZ-4 DEB

基本信息
目录编号:
20881
目录名称:
CZ-4 DEB
国际标识:
1990-081AR
轨道中心:
EARTH
物体状态:
在轨
发射日期:
1990-09-03 UTC
轨道信息
数据来源: 国际轨道数据
星历时间: 2026-07-13T22:44:30+0800
半长轴: 7114.009km
偏心率: 0.0069539
轨道倾角: 98.472°
近地点辐角: 194.797°
升交点赤经: 204.737°
平近点角: 165.118°
近地点: 686.401km
远地点: 785.343km
周期: 99.525分钟
每日圈数: 14.468756
详细信息
发射场:
TSC
轨道高度:
LEO
数据来源:
AOE Integration Group
参考系:
TEME
时间系统:
UTC
历元类型:
SGP4
2D轨道图
3D轨道图
轨道高度分析图
轨道倾角分析图
轨道综合分析图
查看轨道综合分析图